Flag for U.S.A. Weather past 2 weeks in Santa Cruz, California, U.S.A.

Now
68 °F

Sunny.


Feels Like: 68 °F
Forecast: 47 / 64 °F
Wind: No wind

Location: Watsonville Municipal Airport

Current Time: Jan 29, 2015 at 5:13:30 PM

Latest Report: Jan 29, 2015 at 4:53 PM


Visibility: 10 mi

Pressure: 30.03 "Hg

Humidity: 47%

Dew point: 47 °F

Location of Santa CruzLocation

Historic Weather in Santa Cruz — Graph

°F

Santa Cruz temperature yesterday

Maximum temperature yesterday: 70 °F (at 1:53 PM)
Minimum temperature yesterday: 44 °F (at 6:53 AM)
Average temperature yesterday: 56 °F

Past Weeks' High & Low Weather Summary

 TemperatureHumidityPressure
High82 °F (Jan 25, 2:53 PM)93% (Jan 15, 5:53 AM)30.34 "Hg (Jan 15, 5:53 AM)
Low40 °F (Jan 23, 6:53 AM)20% (Jan 25, 1:53 PM)29.96 "Hg (Jan 26, 3:53 PM)
Average56 °F71%30.18 "Hg
* Reported Jan 14 3:53 PM — Jan 29 3:53 PM, Santa Cruz, Weather by CustomWeather, © 2014

Note: Actual official high and low records may vary slightly from our data, if they occured in-between our weather recording intervals... More about our weather records

Advertising

Santa Cruz weather history for previous 24 hours

 ConditionsComfort  
Time TempWeatherWind HumidityBarometerVisibility
3:53 PM
Jan 29
68 °FSunny.7 mph49%30.03 "Hg10 mi
2:53 PM70 °FSunny.8 mph51%30.04 "Hg10 mi
1:53 PM73 °FSunny.3 mph43%30.04 "Hg10 mi
12:53 PM71 °FSunny.No wind44%30.07 "Hg10 mi
11:53 AM67 °FSunny.3 mph51%30.11 "Hg10 mi
10:53 AM62 °FSunny.No wind58%30.13 "Hg10 mi
9:53 AM57 °FSunny.No wind69%30.14 "Hg10 mi
8:53 AM52 °FSunny.No wind75%30.14 "Hg10 mi
7:53 AM46 °FSunny.No wind86%30.14 "Hg10 mi
6:53 AM43 °FClear.No wind89%30.13 "Hg10 mi
5:53 AM45 °FClear.No wind86%30.12 "Hg10 mi
4:53 AM47 °FClear.No wind83%30.13 "Hg10 mi
3:53 AM46 °FClear.No wind86%30.13 "Hg10 mi
2:53 AM50 °FClear.No wind80%30.14 "Hg10 mi
1:53 AM47 °FClear.No wind86%30.15 "Hg10 mi
12:53 AM47 °FClear.No wind80%30.15 "Hg10 mi
11:53 PM
Jan 28
51 °FClear.5 mph74%30.17 "Hg10 mi
10:53 PM52 °FClear.6 mph75%30.17 "Hg10 mi
9:53 PM53 °FClear.5 mph72%30.17 "Hg10 mi
8:53 PM53 °FClear.5 mph77%30.17 "Hg10 mi
7:53 PM56 °FClear.5 mph72%30.17 "Hg10 mi
6:53 PM58 °FClear.No wind72%30.16 "Hg10 mi
5:53 PM60 °FClear.3 mph62%30.15 "Hg10 mi
Weather by CustomWeather, © 2014

See weather overviewHow to use our weather pages